Location: Baix
(44.7118°N, 4.7648°E)
Time: 18:15:58
(UTC+00:00)

Cosmos 2026 Rocket - Pass Details

Date: 07 August 2020
Orbit: 940 x 1000 km, 82.9° (Epoch: 23 September)

Event Time Altitude Azimuth Distance (km) Brightness Sun altitude
Rises 01:41:20 0° 347° (NNW) 3,615 7.7 -23.6°
Reaches altitude 10° 01:43:51 10° 344° (NNW) 2,669 6.8 -23.4°
Maximum altitude 01:49:46 56° 268° (W) 1,114 4.1 -22.9°
Enters shadow 01:51:07 47° 224° (SW) 1,246 4.1 -22.7°
